Vorticity
7 5 6 4 3 3 4 6 6 7 9 8 15 18 19 20 11 6 9 15 21 15 17 12 14 19 11 4 3 5 1 3 10 16 19 19 21 13 7 7 9 4 14 8
5 3 3 3 4 5 6 7 11 15 17 14 12 8 6 5 9 17 21 14 11 14 15 25 5 2 0 1 1 5 12 14 5 3 4 5 7 9 9 11 2 12 4 58
2 3 4 5 6 8 10 12 15 10 6 6 7 17 20 23 19 13 13 19 15 19 1 1 -0 1 3 4 7 13 3 1 2 6 8 12 16 14 11 -0 5 7 62 34
3 6 7 11 12 17 8 7 10 16 22 25 26 24 14 9 14 16 21 17 10 -3 2 1 2 4 5 9 10 4 2 2 4 10 13 17 19 12 7 -3 8 0 40 31
12 15 18 8 5 9 18 25 23 15 14 12 6 3 15 16 20 20 16 6 -1 1 -0 0 3 5 8 8 6 5 6 2 14 16 16 12 7 15 11 0 10 6 28 35
8 7 10 16 27 23 11 5 7 8 7 8 11 14 18 25 24 25 4 0 1 0 -1 2 5 8 7 5 5 5 3 13 19 9 12 4 5 5 11 2 7 18 15 31
22 22 15 9 6 4 4 6 8 8 9 6 7 17 10 -2 5 0 -1 0 -0 -0 1 5 8 6 4 4 8 10 11 24 10 11 4 5 3 7 10 10 -1 13 5 11
4 -0 3 7 7 8 8 6 8 12 12 13 14 13 -1 2 2 0 1 1 1 4 8 10 6 3 6 6 9 16 16 13 7 -2 3 5 1 9 6 12 12 -1 14 8
6 8 8 13 12 10 12 12 4 6 12 19 19 18 4 5 1 1 2 3 9 12 10 3 5 6 9 11 15 17 13 3 6 6 1 7 7 4 4 6 5 11 2 8
9 10 9 9 7 6 3 5 6 6 7 8 5 10 7 4 7 7 6 9 9 6 3 2 6 4 7 13 11 11 7 7 6 2 4 7 6 4 3 5 6 6 5 6
4 5 6 5 6 6 7 7 6 5 5 7 5 6 10 8 7 7 10 4 3 5 3 5 5 4 11 13 10 10 6 4 4 5 9 3 4 1 3 4 4 1 7 5
6 5 7 5 6 5 4 6 8 7 8 4 3 -2 2 4 7 15 -1 3 1 7 6 5 6 12 11 10 3 10 4 0 8 10 8 5 2 -0 -1 -3 -0 3 5 5
6 8 7 6 5 6 6 5 2 4 4 1 4 -9 1 3 4 10 -11 6 13 9 5 8 13 11 8 8 5 8 3 2 3 8 4 4 1 1 1 -2 -3 -2 2 2
4 4 4 4 5 5 5 6 4 4 4 4 9 8 7 5 10 7 11 18 16 16 16 18 10 6 4 7 3 3 6 4 4 5 7 5 -2 2 1 -1 -1 -1 -2 3
6 6 5 4 4 3 3 2 4 4 5 6 0 1 13 12 10 13 9 9 13 11 6 5 5 2 3 2 3 4 5 7 11 5 6 4 2 -1 -2 2 3 2 2 6
5 5 6 7 4 5 7 5 4 4 5 9 14 15 3 5 14 5 7 18 15 9 7 9 8 5 1 1 1 4 3 4 4 3 8 8 2 3 4 4 4 3 3 4
4 5 9 12 15 14 14 16 16 17 11 6 9 5 8 6 4 4 4 4 7 7 5 5 6 6 6 5 1 3 10 8 7 10 7 6 5 5 5 6 6 8 8 6
8 7 3 4 6 6 10 10 10 8 7 7 9 7 10 10 7 7 7 8 3 6 8 6 5 5 7 8 8 6 6 9 12 4 6 6 16 16 15 10 11 11 8 8
9 10 8 8 7 5 5 5 4 8 7 8 3 7 8 8 9 15 18 15 14 7 3 1 9 17 13 12 15 17 16 16 13 11 6 6 8 7 10 5 6 9 8 7
7 9 10 12 17 18 19 10 8 9 8 8 9 12 8 12 9 6 4 6 6 11 9 8 7 4 4 5 5 2 -0 1 -2 1 14 13 7 10 9 6 6 6 5 9
8 3 4 2 -1 2 -1 4 4 1 4 5 10 6 4 4 5 4 5 7 5 5 3 4 6 6 5 4 5 3 1 1 2 2 7 10 10 8 6 7 6 5 9 5
4 -0 3 8 7 6 3 10 3 6 6 5 4 5 5 7 5 0 2 4 4 6 7 5 4 4 3 3 5 4 3 2 2 6 9 6 6 8 7 9 9 7 5 3
2 1 3 -1 -0 5 2 2 4 6 2 2 3 3 4 3 2 3 2 2 2 2 1 1 2 2 4 5 5 6 5 4 5 10 8 7 10 7 4 3 14 16 10 10
9 8 5 1 1 3 2 2 3 3 0 -2 -2 -0 2 2 2 4 4 4 4 5 4 4 5 5 3 3 5 8 7 14 15 13 15 12 9 9 10 8 8 6 9 12
3 4 2 8 -2 6 2 3 5 4 3 1 2 4 4 4 3 5 6 7 7 6 5 8 11 12 16 17 17 18 18 19 21 19 17 18 16 10 7 7 11 10 -1 -5
4 7 7 8 6 5 5 6 4 4 4 5 5 7 12 12 12 12 13 14 14 14 16 16 18 18 18 18 18 18 20 21 21 21 19 14 10 14 17 15 13 13 13 9
Height
5811 5814 5815 5816 5817 5817 5816 5815 5814 5813 5811 5810 5808 5806 5804 5802 5801 5799 5797 5795 5794 5792 5790 5788 5787 5785 5783 5780 5778 5776 5772 5769 5765 5759 5753 5747 5740 5734 5726 5718 5709 5698 5683 5666
5810 5811 5812 5812 5812 5812 5811 5810 5808 5807 5804 5803 5801 5800 5799 5796 5794 5793 5791 5790 5789 5788 5787 5785 5784 5782 5780 5777 5775 5772 5768 5764 5759 5754 5748 5742 5734 5727 5718 5709 5696 5680 5658 5631
5807 5808 5808 5808 5807 5807 5805 5804 5802 5800 5798 5796 5795 5794 5791 5790 5788 5787 5786 5786 5786 5785 5785 5784 5782 5779 5777 5774 5771 5767 5764 5759 5754 5749 5741 5735 5727 5719 5710 5699 5686 5669 5640 5617
5803 5803 5804 5803 5803 5802 5800 5799 5797 5795 5793 5791 5789 5790 5787 5785 5784 5783 5782 5783 5783 5783 5782 5781 5779 5776 5773 5770 5766 5763 5759 5754 5749 5742 5736 5729 5722 5713 5705 5695 5680 5661 5633 5613
5800 5799 5799 5798 5798 5797 5796 5794 5793 5791 5789 5788 5787 5786 5784 5781 5779 5779 5780 5781 5782 5781 5779 5778 5775 5772 5769 5766 5763 5759 5755 5750 5744 5738 5732 5725 5717 5709 5700 5689 5673 5656 5633 5613
5796 5795 5795 5793 5793 5793 5793 5791 5790 5789 5787 5786 5784 5783 5781 5778 5777 5777 5780 5780 5779 5778 5777 5774 5772 5769 5765 5762 5757 5754 5750 5745 5739 5734 5729 5722 5715 5706 5696 5685 5671 5655 5637 5619
5792 5792 5791 5791 5791 5791 5790 5789 5788 5787 5784 5783 5781 5781 5780 5779 5778 5779 5779 5778 5777 5775 5773 5770 5767 5764 5761 5757 5753 5749 5745 5740 5736 5731 5726 5719 5712 5703 5694 5684 5672 5658 5643 5628
5791 5792 5791 5790 5790 5789 5787 5786 5785 5783 5781 5780 5778 5778 5778 5778 5778 5778 5776 5775 5774 5772 5769 5766 5763 5760 5757 5753 5748 5744 5740 5736 5732 5728 5722 5716 5709 5700 5691 5682 5673 5662 5650 5638
5790 5789 5789 5788 5787 5787 5785 5785 5785 5783 5780 5778 5777 5777 5777 5776 5776 5775 5774 5772 5770 5768 5765 5762 5760 5756 5752 5748 5743 5739 5736 5732 5728 5723 5718 5712 5705 5698 5690 5682 5674 5665 5655 5646
5788 5787 5786 5786 5786 5786 5785 5784 5783 5781 5780 5778 5777 5775 5775 5774 5773 5772 5770 5768 5766 5764 5761 5757 5755 5751 5747 5743 5739 5735 5731 5728 5724 5720 5715 5709 5703 5696 5689 5682 5674 5667 5659 5651
5787 5787 5787 5786 5785 5784 5783 5782 5781 5779 5778 5776 5775 5775 5772 5770 5769 5767 5765 5763 5761 5759 5755 5752 5749 5745 5742 5738 5734 5730 5727 5723 5720 5716 5711 5706 5701 5695 5689 5682 5676 5669 5662 5655
5785 5784 5783 5783 5782 5782 5780 5779 5778 5777 5777 5775 5773 5773 5769 5766 5763 5761 5760 5758 5755 5752 5749 5746 5743 5739 5736 5732 5729 5725 5722 5718 5715 5711 5706 5702 5697 5692 5686 5681 5675 5669 5664 5659
5783 5782 5781 5781 5781 5779 5778 5776 5775 5773 5772 5772 5769 5770 5763 5758 5755 5753 5752 5750 5747 5745 5742 5739 5736 5733 5730 5726 5723 5720 5716 5712 5708 5705 5700 5695 5690 5685 5681 5677 5671 5666 5662 5658
5780 5779 5778 5778 5776 5775 5774 5772 5770 5768 5767 5765 5765 5763 5755 5748 5747 5746 5743 5741 5739 5736 5734 5732 5728 5725 5722 5719 5716 5713 5709 5705 5701 5697 5693 5690 5685 5680 5675 5670 5667 5663 5658 5653
5776 5776 5774 5772 5770 5769 5769 5766 5763 5761 5759 5755 5758 5754 5745 5743 5740 5737 5736 5734 5732 5729 5727 5723 5720 5717 5713 5710 5707 5704 5700 5697 5693 5689 5685 5681 5677 5672 5668 5664 5660 5656 5652 5648
5770 5769 5768 5768 5764 5762 5762 5759 5756 5752 5750 5746 5743 5744 5736 5737 5735 5734 5732 5730 5727 5724 5719 5715 5711 5707 5704 5701 5697 5694 5691 5687 5683 5678 5674 5671 5667 5662 5657 5655 5652 5649 5644 5641
5763 5761 5759 5760 5757 5756 5756 5751 5747 5744 5740 5738 5736 5735 5732 5730 5729 5727 5726 5721 5717 5713 5709 5704 5699 5696 5693 5690 5686 5683 5681 5675 5672 5668 5663 5659 5656 5653 5649 5645 5641 5638 5634 5630
5755 5752 5750 5751 5748 5748 5745 5741 5738 5735 5730 5728 5728 5727 5725 5725 5724 5718 5713 5708 5705 5701 5698 5694 5688 5686 5684 5680 5674 5672 5669 5664 5661 5656 5651 5647 5645 5642 5638 5634 5630 5626 5621 5618
5744 5743 5740 5740 5740 5739 5736 5729 5727 5724 5719 5720 5717 5715 5714 5715 5714 5709 5703 5699 5695 5690 5686 5681 5676 5674 5673 5669 5663 5660 5656 5652 5649 5643 5639 5636 5632 5629 5626 5622 5619 5617 5612 5609
5735 5732 5731 5729 5727 5727 5728 5722 5718 5712 5709 5707 5707 5706 5705 5703 5701 5702 5694 5689 5685 5680 5675 5670 5666 5663 5659 5655 5651 5648 5644 5640 5634 5628 5626 5624 5621 5618 5613 5608 5604 5602 5599 5596
5726 5723 5721 5717 5713 5717 5714 5711 5708 5705 5703 5696 5695 5695 5693 5689 5686 5683 5681 5679 5673 5669 5666 5660 5656 5651 5647 5643 5638 5635 5632 5628 5620 5617 5613 5611 5606 5602 5599 5596 5592 5589 5585 5582
5716 5712 5710 5706 5704 5701 5698 5696 5694 5689 5686 5685 5684 5681 5678 5676 5673 5669 5665 5660 5656 5653 5651 5646 5641 5637 5633 5627 5624 5621 5616 5610 5605 5601 5598 5594 5589 5587 5584 5580 5576 5573 5570 5567
5704 5702 5697 5697 5694 5689 5680 5678 5674 5672 5670 5667 5664 5663 5661 5656 5653 5650 5647 5643 5639 5635 5632 5628 5624 5620 5614 5608 5603 5601 5597 5592 5588 5584 5578 5575 5572 5569 5565 5562 5559 5556 5553 5550
5690 5688 5685 5682 5683 5677 5668 5665 5663 5660 5654 5651 5648 5643 5639 5635 5633 5630 5627 5623 5619 5616 5612 5607 5603 5599 5594 5588 5583 5578 5576 5572 5570 5566 5562 5558 5553 5549 5547 5544 5542 5539 5536 5532
5677 5675 5674 5667 5663 5653 5653 5649 5647 5644 5639 5635 5630 5625 5621 5618 5614 5609 5606 5601 5596 5592 5588 5583 5579 5575 5571 5566 5560 5555 5553 5549 5544 5540 5537 5535 5533 5530 5528 5526 5523 5521 5519 5516
5661 5660 5656 5647 5642 5634 5634 5632 5628 5624 5620 5615 5611 5609 5603 5597 5593 5590 5585 5580 5575 5571 5567 5562 5557 5553 5549 5544 5538 5534 5529 5526 5524 5522 5517 5513 5509 5508 5507 5504 5503 5501 5499 5496